sat.trackr.live / text

‹ back to catalog

STARLINK-34485

NORAD 64684 · 2025-139W

PAYLOAD ACTIVE UNKNOWN

§ Identity

Operator
Country
US
Launch date
2025-06-28
Launch site
AFETR
Launch vehicle
Mass (kg)
RCS (m²)

Purposes: comms

External: N2YO · Heavens-Above · Gunter

§ Orbital elements

Epoch: 2026-05-24T06:12:10.734912Z

Period
93.85 min
Inclination
53.1573°
Eccentricity
0.0001051
Mean motion
15.34393955 rev/d
Perigee alt
462.0 km
Apogee alt
463.4 km
Semi-major
6,840.9 km
B*
6.4498e-4
RAAN
135.3441°
Arg perigee
63.5474°
Mean anomaly
296.5637°
Rev number
5,186

§ Raw data

STARLINK-344851 64684U 25139W   26144.25845758  .00021474  00000+0  64498-3 0  99902 64684  53.1573 135.3441 0001051  63.5474 296.5637 15.34393955 51866

JSON: /api/v1/satellites/64684 · /tle

For live sub-satellite position, see the globe view (requires WebGL).

§ Visibility from observer

Set your observer location to see the next 7 days of passes ≥ 10°. The values pass through the URL so the page stays shareable.

No JS? Fill the form by hand. The geolocation button needs JavaScript.